When you browse on this site, cookies collect data to enhance your experience and personalize the content and advertising you see.
Visit our Privacy Policy to learn more. By continuing to use the site, you agree to this use of cookies and data.
  • In Belgium
  • List of Countries
  • For 7 days
  • Water Temperature
  • Satellite Maps
  • Weather Map
  • Weather Widgets
  • user-avatar
    Login

    Hourly Weather Zaharovo

    Today, 22 March, Friday

    Time Temperature Precipitation Wind Pressure Humidity
    00:00 0°C° 0.2 mm 3 mps 740 mmHg 92%
    01:00 0°C° 0.2 mm 3 mps 739 mmHg 91%
    02:00 +1°C° 0 mm 3 mps 737 mmHg 89%
    03:00 0°C° 0.9 mm 4 mps 736 mmHg 90%
    04:00 0°C° 0.9 mm 4 mps 736 mmHg 92%
    05:00 +1°C° 0.9 mm 4 mps 735 mmHg 93%
    06:00 +1°C° 0.5 mm 5 mps 735 mmHg 90%
    07:00 +1°C° 0.5 mm 6 mps 735 mmHg 87%
    08:00 0°C° 0 mm 7 mps 734 mmHg 83%
    09:00 -1°C° 0.1 mm 7 mps 735 mmHg 80%
    10:00 -1°C° 0.1 mm 7 mps 736 mmHg 78%
    11:00 -2°C° 0.1 mm 7 mps 737 mmHg 75%
    12:00 -2°C° 0.1 mm 7 mps 737 mmHg 74%
    13:00 -2°C° 0.1 mm 7 mps 738 mmHg 74%
    14:00 -2°C° 0.1 mm 7 mps 739 mmHg 73%
    15:00 -2°C° 0.1 mm 7 mps 739 mmHg 75%
    16:00 -2°C° 0.1 mm 6 mps 739 mmHg 76%
    17:00 -3°C° 0.1 mm 6 mps 740 mmHg 77%
    18:00 -3°C° 0.2 mm 6 mps 740 mmHg 79%
    19:00 -3°C° 0.2 mm 6 mps 741 mmHg 81%
    20:00 -3°C° 0.2 mm 6 mps 741 mmHg 84%
    21:00 -3°C° 0.2 mm 6 mps 741 mmHg 84%
    22:00 -1°C° 0.2 mm 5 mps 742 mmHg 85%
    23:00 -1°C° 0.2 mm 5 mps 742 mmHg 85%

    Tomorrow, 23 March, Saturday

    Time Temperature Precipitation Wind Pressure Humidity
    00:00 -1°C° 0.1 mm 5 mps 743 mmHg 86%
    01:00 -1°C° 0.1 mm 5 mps 743 mmHg 86%
    02:00 -1°C° 0.1 mm 5 mps 744 mmHg 87%
    03:00 -1°C° 0 mm 4 mps 745 mmHg 88%
    04:00 -1°C° 0 mm 4 mps 745 mmHg 88%
    05:00 -1°C° 0 mm 4 mps 746 mmHg 89%
    06:00 0°C° 0 mm 3 mps 746 mmHg 89%
    07:00 0°C° 0 mm 3 mps 747 mmHg 89%
    08:00 +1°C° 0 mm 2 mps 747 mmHg 89%
    09:00 +2°C° 0 mm 2 mps 747 mmHg 86%
    10:00 +3°C° 0 mm 1 mps 747 mmHg 84%
    11:00 +4°C° 0 mm 1 mps 747 mmHg 81%
    12:00 +4°C° 0 mm 1 mps 747 mmHg 80%
    13:00 +4°C° 0 mm 1 mps 747 mmHg 79%
    14:00 +4°C° 0 mm 1 mps 746 mmHg 77%
    15:00 +4°C° 0 mm 1 mps 746 mmHg 80%
    16:00 +4°C° 0 mm 1 mps 745 mmHg 83%
    17:00 +2°C° 0 mm 2 mps 745 mmHg 86%
    18:00 +2°C° 0 mm 2 mps 744 mmHg 87%
    19:00 +1°C° 0 mm 2 mps 744 mmHg 87%
    20:00 -1°C° 0 mm 3 mps 744 mmHg 88%
    21:00 -1°C° 0 mm 3 mps 743 mmHg 88%
    22:00 -2°C° 0 mm 4 mps 742 mmHg 87%
    23:00 -2°C° 0 mm 4 mps 741 mmHg 86%

    Day after tomorrow, 24 March, Sunday

    Time Temperature Precipitation Wind Pressure Humidity
    00:00 -1°C° 0.5 mm 4 mps 740 mmHg 86%
    01:00 -1°C° 0.5 mm 4 mps 740 mmHg 86%
    02:00 -1°C° 0.5 mm 4 mps 739 mmHg 87%
    03:00 -1°C° 0.4 mm 4 mps 739 mmHg 88%
    04:00 -1°C° 0.4 mm 4 mps 738 mmHg 89%
    05:00 0°C° 0.4 mm 3 mps 738 mmHg 91%
    06:00 0°C° 0 mm 3 mps 738 mmHg 91%
    07:00 +1°C° 0 mm 3 mps 737 mmHg 92%
    08:00 +1°C° 0 mm 3 mps 737 mmHg 92%
    09:00 +1°C° 0 mm 4 mps 737 mmHg 85%
    10:00 +3°C° 0 mm 4 mps 737 mmHg 78%
    11:00 +3°C° 0 mm 4 mps 737 mmHg 71%
    12:00 +2°C° 0.1 mm 5 mps 737 mmHg 69%
    13:00 +2°C° 0.1 mm 5 mps 737 mmHg 66%
    14:00 +2°C° 0.1 mm 5 mps 737 mmHg 63%
    15:00 +1°C° 0.1 mm 4 mps 737 mmHg 66%
    16:00 +1°C° 0.1 mm 4 mps 737 mmHg 69%
    17:00 +1°C° 0.1 mm 3 mps 737 mmHg 72%
    18:00 0°C° 0 mm 3 mps 737 mmHg 75%
    19:00 -1°C° 0 mm 3 mps 737 mmHg 77%
    20:00 -2°C° 0 mm 2 mps 737 mmHg 80%
    21:00 -2°C° 0 mm 3 mps 736 mmHg 80%
    22:00 -2°C° 0 mm 3 mps 736 mmHg 80%
    23:00 -2°C° 0 mm 3 mps 736 mmHg 79%

    25 March, Monday

    Time Temperature Precipitation Wind Pressure Humidity
    00:00 -2°C° 0 mm 3 mps 736 mmHg 79%
    01:00 -4°C° 0 mm 3 mps 735 mmHg 79%
    02:00 -4°C° 0 mm 3 mps 735 mmHg 79%
    03:00 -4°C° 0 mm 3 mps 735 mmHg 81%
    04:00 -4°C° 0 mm 3 mps 735 mmHg 82%
    05:00 -4°C° 0 mm 3 mps 735 mmHg 83%
    06:00 -2°C° 0 mm 3 mps 735 mmHg 80%
    07:00 -1°C° 0 mm 3 mps 735 mmHg 78%
    08:00 -1°C° 0 mm 3 mps 735 mmHg 76%
    09:00 0°C° 0 mm 4 mps 735 mmHg 72%
    10:00 +1°C° 0 mm 4 mps 734 mmHg 68%
    11:00 +3°C° 0 mm 4 mps 734 mmHg 65%
    12:00 +4°C° 0.2 mm 4 mps 734 mmHg 63%
    13:00 +4°C° 0.2 mm 4 mps 734 mmHg 62%
    14:00 +4°C° 0.2 mm 4 mps 734 mmHg 60%
    15:00 +4°C° 0.1 mm 3 mps 734 mmHg 65%
    16:00 +4°C° 0.1 mm 2 mps 734 mmHg 70%
    17:00 +3°C° 0.1 mm 2 mps 734 mmHg 76%
    18:00 +2°C° 0.1 mm 2 mps 734 mmHg 80%
    19:00 +1°C° 0.1 mm 2 mps 735 mmHg 84%
    20:00 -1°C° 0.1 mm 2 mps 735 mmHg 88%
    21:00 -1°C° 0.1 mm 2 mps 735 mmHg 90%
    22:00 -2°C° 0.1 mm 2 mps 736 mmHg 92%
    23:00 -2°C° 0.1 mm 2 mps 736 mmHg 94%

    26 March, Tuesday

    Time Temperature Precipitation Wind Pressure Humidity
    00:00 -2°C° 0 mm 2 mps 736 mmHg 95%
    01:00 -3°C° 0 mm 2 mps 737 mmHg 95%
    02:00 -3°C° 0 mm 2 mps 737 mmHg 95%
    03:00 -3°C° 0 mm 2 mps 738 mmHg 94%
    04:00 -4°C° 0 mm 2 mps 738 mmHg 93%
    05:00 -4°C° 0 mm 2 mps 739 mmHg 93%
    06:00 -5°C° 0 mm 3 mps 739 mmHg 87%
    07:00 -4°C° 0 mm 3 mps 740 mmHg 81%
    08:00 -4°C° 0 mm 4 mps 740 mmHg 76%
    09:00 -3°C° 0 mm 4 mps 741 mmHg 71%
    10:00 -2°C° 0 mm 4 mps 741 mmHg 66%
    11:00 -2°C° 0 mm 4 mps 741 mmHg 61%
    12:00 -1°C° 0.1 mm 4 mps 741 mmHg 59%
    13:00 -1°C° 0.1 mm 4 mps 741 mmHg 56%
    14:00 -1°C° 0.1 mm 4 mps 741 mmHg 54%
    15:00 -1°C° 0.1 mm 4 mps 741 mmHg 56%
    16:00 0°C° 0.1 mm 3 mps 741 mmHg 59%
    17:00 -1°C° 0.1 mm 2 mps 741 mmHg 62%
    18:00 -2°C° 0 mm 2 mps 741 mmHg 67%
    19:00 -3°C° 0 mm 2 mps 741 mmHg 71%
    20:00 -4°C° 0 mm 2 mps 741 mmHg 76%
    21:00 -5°C° 0 mm 3 mps 741 mmHg 75%
    22:00 -5°C° 0 mm 3 mps 741 mmHg 74%
    23:00 -4°C° 0 mm 3 mps 741 mmHg 73%

    27 March, Wednesday

    Time Temperature Precipitation Wind Pressure Humidity
    00:00 -4°C° 0 mm 3 mps 741 mmHg 74%
    01:00 -4°C° 0 mm 3 mps 741 mmHg 74%
    02:00 -4°C° 0 mm 3 mps 741 mmHg 75%
    03:00 -4°C° 0 mm 3 mps 741 mmHg 76%
    04:00 -4°C° 0 mm 3 mps 741 mmHg 77%
    05:00 -4°C° 0 mm 3 mps 741 mmHg 79%
    06:00 -4°C° 0 mm 4 mps 740 mmHg 77%
    07:00 -3°C° 0 mm 4 mps 740 mmHg 75%
    08:00 -2°C° 0 mm 5 mps 740 mmHg 73%
    09:00 0°C° 0 mm 5 mps 740 mmHg 72%
    10:00 +1°C° 0 mm 5 mps 740 mmHg 70%
    11:00 +2°C° 0 mm 5 mps 740 mmHg 69%
    12:00 +2°C° 0 mm 5 mps 740 mmHg 73%
    13:00 +2°C° 0 mm 5 mps 740 mmHg 76%
    14:00 +1°C° 0 mm 5 mps 740 mmHg 79%
    15:00 +1°C° 0 mm 4 mps 740 mmHg 80%
    16:00 +1°C° 0 mm 4 mps 740 mmHg 81%
    17:00 +1°C° 0 mm 4 mps 740 mmHg 82%
    18:00 +1°C° 0.1 mm 4 mps 740 mmHg 84%
    19:00 +1°C° 0.1 mm 4 mps 740 mmHg 87%
    20:00 +2°C° 0.1 mm 3 mps 741 mmHg 90%
    21:00 +1°C° 0 mm 3 mps 741 mmHg 91%
    22:00 +1°C° 0 mm 3 mps 741 mmHg 93%
    23:00 +1°C° 0 mm 3 mps 741 mmHg 94%
    Show more